Regional Weather Roundup
Issued by NWS

Home | Current Version | Previous Version | Text Only | Print | Product List | Glossary On
Versions: 1 2 3 4 5 6 7 8 9 10 11 12 13 14 15 16 17 18 19 20 21 22 23 24 25 26 27 28 29 30 31 32 33 34 35 36 37 38 39 40 41 42 43 44 45 46 47 48 49 50
000
ASUS45 KSLC 312310
RWRUT

UTAH REGIONAL WEATHER ROUNDUP
NATIONAL WEATHER SERVICE SALT LAKE CITY UT
500 PM MDT FRI JUL 31 2015

UTZ001>011-023>025-010000-

NORTHERN UTAH

CITY           SKY/WX    TMP DP  RH WIND       PRES   REMARKS
BRIGHAM CITY   SUNNY     93  11   5 CALM      30.15F
HILL AFB       SUNNY     91  28  10 NW6       30.19F
LOGAN          SUNNY     92  16   6 CALM      30.17F
OGDEN          SUNNY     91  26   9 W8        30.16F
PROVO AIRPORT  MOSUNNY   91  37  15 SW6       30.15F
SALT LAKE CITY MOSUNNY   93  22   7 W5        30.14F
VERNAL         SUNNY     92  15   6 SE8       30.16F
WENDOVER       SUNNY     95  30  10 SE10      30.14F
HEBER CITY     SUNNY     91  30  11 W9        30.21F
WEST JORDAN    SUNNY     91  34  13 N10G17    30.18F

$$

UTZ012>022-026-027-010000-

SOUTHERN/CENTRAL UTAH

CITY           SKY/WX    TMP DP  RH WIND       PRES   REMARKS
BLANDING       MOSUNNY   87  47  24 E10G16    30.31F
BRYCE CANYON   CLOUDY    76  38  25 E3        30.40F
CEDAR CITY     MOSUNNY   90  35  14 VRB3      30.21F
DELTA          SUNNY     94  20   6 NW12      30.14F
HANKSVILLE     MOSUNNY   97  32  10 SE3       30.11F HX  91
MILFORD        SUNNY     95  33  11 N10G20    30.14F HX  90
MOAB/CYNLANDS  SUNNY     97  34  11 NW12G17   30.09F HX  91
PRICE          SUNNY     93  18   6 VRB5      30.21F
ST GEORGE      CLEAR     97  52  21 S15       30.01F HX  94
KANAB          CLOUDY    84  50  30 S10       30.22F

$$

REGIONAL REPORTS     COLORADO/ARIZONA

CITY           SKY/WX    TMP DP  RH WIND       PRES   REMARKS
CRAIG, CO      SUNNY     91  24   9 VRB3      30.23F
GRAND JUNCTION MOSUNNY   94  28   9 W7        30.12F
RIFLE          SUNNY     94  28   9 NW8       30.16F
MONTROSE       PTSUNNY   83  44  25 SW8       30.24S
CORTEZ         LGT RAIN  73  57  57 E7        30.32R
PAGE, AZ       MOSUNNY   97  38  13 NE8       30.09F HX  92
GRAND CANYON   CLOUDY    67  57  70 NE3       30.34F
KINGMAN        SUNNY     98  47  17 SW14G23   30.06F HX  94
FLAGSTAFF      CLOUDY    65  62  90 SW5       30.37S

$$

REGIONAL REPORTS    NEVADA/IDAHO/WYOMING

CITY           SKY/WX    TMP DP  RH WIND       PRES   REMARKS
LAS VEGAS, NV  MOSUNNY  103  50  17 CALM      29.89F HX 100
ELY            PTSUNNY   87  24  10 SW10G35   30.29F
ELKO           SUNNY     96  16   5 VRB6G17   30.18F
POCATELLO, ID  SUNNY     92  23   8 NW5       30.20F
BURLEY         SUNNY     91  29  11 VRB5      30.15F
EVANSTON, WY   SUNNY     84  22  10 N8G22     30.35F
ROCK SPRINGS   SUNNY     85  20   9 SW9G29    30.30F
KEMMERER       SUNNY     82  19   9 W12       30.38F

$$



USA.gov is the U.S. government's official web portal to all federal, state and local government web resources and services.